EW1687 Weather Reports


time (UTC)temp
C
wind
direction
speed
KPH
gust
KPH
rain 1hr
cm
rain 24hr
cm
rain mn
cm
humidity
%
barometer
mb
20260904135552 26 292 6.4 14.5 0.00 0.15 0.03 73 1015.4
20260904135052 26 268 6.4 16.1 0.00 0.15 0.03 75 1015.4
20260904134601 25 302 6.4 16.1 0.00 0.15 0.03 75 1015.5
20260904134052 25 325 4.8 14.5 0.00 0.15 0.03 76 1015.4
20260904133551 24 340 6.4 14.5 0.00 0.15 0.03 78 1015.4
20260904133100 24 5 4.8 14.5 0.00 0.15 0.03 79 1015.3
20260904132551 24 323 6.4 14.5 0.00 0.15 0.03 80 1015.2
20260904132051 23 309 3.2 9.7 0.00 0.15 0.03 81 1015.3
20260904131557 23 317 3.2 11.3 0.00 0.15 0.03 81 1015.3
20260904131050 23 319 4.8 14.5 0.00 0.15 0.03 82 1015.5
20260904130551 23 313 6.4 14.5 0.00 0.15 0.03 82 1015.6
20260904130054 23 288 3.2 11.3 0.00 0.15 0.03 83 1015.5
20260904125551 23 276 3.2 16.1 0.00 0.15 0.03 84 1015.5
20260904125051 22 284 6.4 16.1 0.00 0.15 0.03 85 1015.8
20260904124603 22 301 6.4 16.1 0.00 0.15 0.03 87 1015.8
20260904124057 22 270 0.0 6.4 0.00 0.15 0.03 87 1015.8
20260904123551 22 270 1.6 4.8 0.00 0.15 0.03 88 1015.8
20260904123057 22 270 1.6 4.8 0.00 0.15 0.03 88 1015.8
20260904122551 21 0 0.0 3.2 0.00 0.15 0.03 89 1015.8
20260904122050 21 0 0.0 3.2 0.00 0.15 0.03 91 1015.9
20260904121603 21 0 0.0 0.0 0.00 0.15 0.03 92 1015.8
20260904121054 21 0 0.0 4.8 0.00 0.15 0.03 92 1015.8
20260904120553 21 0 0.0 4.8 0.00 0.15 0.03 93 1016.0
20260904120118 20 0 0.0 0.0 0.00 0.15 0.03 93 1015.9
20260904115551 20 0 0.0 0.0 0.00 0.20 0.03 93 1015.8
20260904115051 20 0 0.0 0.0 0.00 0.20 0.03 93 1015.8
20260904114558 20 0 0.0 0.0 0.00 0.20 0.03 93 1015.9
20260904114051 20 0 0.0 0.0 0.00 0.20 0.03 93 1015.8
20260904113550 20 0 0.0 0.0 0.00 0.20 0.03 93 1015.7
20260904113058 20 0 0.0 0.0 0.00 0.20 0.03 93 1015.8
20260904112553 20 0 0.0 0.0 0.00 0.20 0.03 93 1015.7
20260904112054 20 0 0.0 0.0 0.00 0.20 0.03 93 1015.5
20260904111609 20 0 0.0 0.0 0.00 0.20 0.03 93 1015.3
20260904111051 20 0 0.0 0.0 0.00 0.20 0.03 93 1015.5
20260904110555 20 0 0.0 0.0 0.00 0.20 0.03 93 1015.3
20260904110100 20 0 0.0 0.0 0.00 0.20 0.03 93 1015.1
20260904105551 20 0 0.0 0.0 0.00 0.41 0.03 93 1015.1
20260904105051 20 0 0.0 0.0 0.00 0.41 0.03 93 1015.1
20260904104600 20 0 0.0 0.0 0.00 0.41 0.03 93 1014.9
20260904104050 20 0 0.0 0.0 0.00 0.41 0.03 92 1014.8
20260904103550 20 0 0.0 0.0 0.00 0.41 0.03 92 1014.8
20260904103056 20 0 0.0 0.0 0.00 0.41 0.03 92 1014.6
20260904102552 20 0 0.0 0.0 0.00 0.41 0.03 92 1014.6
20260904102052 20 0 0.0 0.0 0.00 0.41 0.03 92 1014.7
20260904101557 20 0 0.0 0.0 0.00 0.41 0.03 92 1014.5
20260904101052 20 0 0.0 0.0 0.00 0.41 0.03 92 1014.5
20260904100552 20 0 0.0 6.4 0.00 0.41 0.03 92 1014.4
20260904100103 20 0 0.0 9.7 0.00 0.41 0.03 92 1014.6
20260904095552 20 0 0.0 9.7 0.00 1.32 0.03 92 1014.5
20260904095051 20 270 3.2 6.4 0.00 1.32 0.03 92 1014.6
20260904094611 20 0 0.0 4.8 0.00 1.32 0.03 92 1014.7
20260904094051 20 0 0.0 0.0 0.00 1.32 0.03 92 1014.6
20260904093554 21 0 0.0 0.0 0.00 1.32 0.03 92 1014.6
20260904093103 21 0 0.0 0.0 0.00 1.32 0.03 92 1014.7
20260904092551 21 0 0.0 0.0 0.00 1.32 0.03 92 1014.4
20260904092051 21 0 0.0 0.0 0.00 1.32 0.03 92 1014.4
20260904091601 21 0 0.0 0.0 0.00 1.32 0.03 92 1014.1
20260904091051 21 0 0.0 0.0 0.00 1.32 0.03 92 1014.2
20260904090554 21 0 0.0 0.0 0.00 1.32 0.03 92 1014.4
20260904090057 21 0 0.0 0.0 0.00 1.32 0.03 92 1014.6
20260904085552 21 0 0.0 0.0 0.00 1.32 0.03 92 1014.6
20260904085052 21 0 0.0 0.0 0.00 1.32 0.03 92 1014.7
20260904084602 21 0 0.0 0.0 0.00 1.32 0.03 92 1014.7
20260904084051 21 0 0.0 0.0 0.00 1.32 0.03 92 1014.7
20260904083553 21 0 0.0 0.0 0.00 1.32 0.03 92 1014.7
20260904083103 21 0 0.0 0.0 0.00 1.32 0.03 91 1014.6
20260904082552 21 0 0.0 0.0 0.00 1.32 0.03 91 1014.6
20260904082050 21 0 0.0 0.0 0.00 1.32 0.03 91 1014.8
20260904081636 21 0 0.0 0.0 0.00 1.32 0.03 91 1014.8
20260904081052 21 0 0.0 0.0 0.00 1.32 0.03 91 1014.7
20260904080552 21 0 0.0 0.0 0.00 1.32 0.03 91 1014.7
20260904080108 21 0 0.0 0.0 0.00 1.32 0.03 91 1014.5
20260904075553 21 0 0.0 0.0 0.00 1.32 0.03 91 1014.5
20260904075052 21 0 0.0 0.0 0.00 1.32 0.03 91 1014.6
20260904074617 21 0 0.0 0.0 0.00 1.32 0.03 91 1014.5
20260904074051 21 0 0.0 0.0 0.00 1.32 0.03 91 1014.5
20260904073551 21 0 0.0 0.0 0.00 1.32 0.03 91 1014.6
20260904073109 21 0 0.0 0.0 0.00 1.32 0.03 90 1014.7
20260904072552 21 0 0.0 0.0 0.00 1.32 0.03 90 1014.4
20260904072052 21 0 0.0 6.4 0.00 1.32 0.03 90 1014.4
20260904071602 21 0 0.0 8.0 0.00 1.32 0.03 90 1014.2
20260904071052 21 0 3.2 11.3 0.00 1.32 0.03 90 1014.4
20260904070552 21 0 3.2 11.3 0.00 1.32 0.03 91 1014.3
20260904070115 21 295 3.2 9.7 0.00 1.32 0.03 91 1014.1
20260904065552 21 250 1.6 6.4 0.00 1.32 0.03 91 1014.1
20260904065052 21 0 0.0 4.8 0.00 1.32 0.03 91 1013.7
20260904064556 21 0 0.0 4.8 0.00 1.32 0.03 90 1013.6
20260904064051 21 0 0.0 6.4 0.00 1.32 0.03 90 1013.4
20260904063551 21 0 0.0 6.4 0.00 1.32 0.03 90 1013.3
20260904063101 21 0 1.6 6.4 0.00 1.32 0.03 90 1013.2
20260904062552 21 0 3.2 6.4 0.00 1.32 0.03 90 1013.3
20260904062051 21 0 0.0 3.2 0.00 1.32 0.03 90 1013.4
20260904061604 21 0 0.0 3.2 0.00 1.32 0.03 90 1013.3
20260904061052 21 0 0.0 0.0 0.00 1.32 0.03 89 1013.3
20260904060552 21 0 0.0 0.0 0.00 1.32 0.03 89 1013.4
20260904060106 21 0 0.0 0.0 0.00 1.32 0.03 89 1013.2
20260904055551 21 0 0.0 0.0 0.00 1.32 0.03 88 1013.0
20260904055051 21 0 0.0 0.0 0.00 1.32 0.03 88 1013.0
20260904054607 21 0 0.0 0.0 0.00 1.32 0.03 88 1013.1
20260904054051 21 0 0.0 0.0 0.00 1.32 0.03 87 1013.1
20260904053551 21 0 0.0 0.0 0.00 1.32 0.03 87 1013.1
20260904053104 22 0 0.0 0.0 0.00 1.32 0.03 87 1013.2
20260904052553 22 0 0.0 0.0 0.00 1.32 0.03 87 1013.3
20260904052053 22 0 0.0 4.8 0.00 1.32 0.03 87 1013.3
20260904051558 22 0 0.0 4.8 0.00 1.32 0.03 86 1013.3
20260904051050 22 0 0.0 6.4 0.03 1.32 0.03 86 1013.3
20260904050551 22 0 0.0 9.7 0.03 1.32 0.03 86 1013.6
20260904045552 22 260 3.2 11.3 0.03 1.32 0.03 85 1013.7
20260904045052 22 0 4.8 14.5 0.03 1.32 0.03 84 1013.7
20260904044603 23 248 3.2 14.5 0.03 1.32 0.03 83 1013.7
20260904044056 23 269 4.8 14.5 0.03 1.32 0.03 82 1013.9
20260904043554 23 261 6.4 14.5 0.03 1.32 0.03 82 1013.9
20260904043124 23 275 8.0 14.5 0.03 1.32 0.03 81 1014.0
20260904042550 23 277 4.8 16.1 0.03 1.32 0.03 80 1013.9
20260904042053 23 275 11.3 20.9 0.03 1.32 0.03 80 1013.8
20260904041606 23 238 11.3 20.9 0.03 1.32 0.03 80 1014.3
20260904041052 24 261 8.0 19.3 0.00 1.30 0.00 81 1014.5
20260904040551 24 261 8.0 24.1 0.00 1.30 0.00 80 1014.3
20260904040107 24 261 11.3 24.1 0.00 1.30 0.00 80 1014.7
20260904035552 24 273 12.9 20.9 0.00 1.30 1.30 83 1014.8
20260904035051 24 281 11.3 17.7 0.00 1.30 1.30 86 1015.0
20260904034555 24 270 9.7 17.7 0.00 1.30 1.30 87 1015.1
20260904034052 24 275 9.7 14.5 0.00 1.30 1.30 88 1015.4
20260904033552 24 267 6.4 16.1 0.00 1.30 1.30 88 1015.4
20260904033057 24 265 8.0 16.1 0.00 1.30 1.30 89 1015.6
20260904032549 24 260 9.7 16.1 0.00 1.30 1.30 90 1015.5
20260904032051 25 273 9.7 14.5 0.00 1.30 1.30 90 1015.6
20260904031602 25 278 4.8 11.3 0.00 1.30 1.30 90 1015.6
20260904031051 25 276 6.4 11.3 0.00 1.30 1.30 90 1015.6
20260904030551 25 280 6.4 11.3 0.00 1.30 1.30 90 1015.7
20260904030100 25 289 1.6 11.3 0.00 1.30 1.30 90 1015.6
20260904025552 25 0 0.0 11.3 0.00 1.30 1.30 90 1015.6
20260904025052 25 291 3.2 11.3 0.00 1.30 1.30 90 1016.1
20260904024605 25 0 0.0 0.0 0.00 1.30 1.30 89 1015.9
20260904024056 25 0 0.0 0.0 0.00 1.30 1.30 89 1015.9
20260904023553 25 0 0.0 0.0 0.00 1.30 1.30 89 1015.6
20260904023102 25 0 0.0 0.0 0.00 1.30 1.30 88 1015.4
20260904022552 25 0 0.0 0.0 0.00 1.30 1.30 88 1015.1
20260904022051 25 0 0.0 0.0 0.00 1.30 1.30 88 1014.9
20260904021602 25 0 0.0 0.0 0.00 1.30 1.30 88 1014.9
20260904021051 25 0 0.0 0.0 0.00 1.30 1.30 88 1014.8
20260904020551 25 0 0.0 0.0 0.00 1.30 1.30 87 1015.0
20260904020101 25 0 0.0 0.0 0.00 1.30 1.30 87 1015.0
20260904015550 25 0 0.0 0.0 0.00 1.30 1.30 87 1015.1
20260904015051 25 0 0.0 0.0 0.00 1.30 1.30 86 1015.1
20260904014642 25 0 0.0 0.0 0.00 1.30 1.30 86 1014.9
20260904014052 25 0 0.0 0.0 0.00 1.30 1.30 86 1014.7
20260904013551 26 0 0.0 0.0 0.00 1.30 1.30 86 1014.7
20260904013059 26 0 0.0 0.0 0.00 1.30 1.30 86 1014.5
20260904012551 26 0 0.0 0.0 0.00 1.30 1.30 86 1014.5
20260904012050 25 0 0.0 0.0 0.00 1.30 1.30 85 1014.4
20260904011602 25 0 0.0 0.0 0.00 1.30 1.30 84 1014.5
20260904011054 26 0 0.0 0.0 0.00 1.30 1.30 84 1014.4
20260904010551 26 0 0.0 0.0 0.00 1.30 1.30 84 1014.6
20260904010057 26 0 0.0 0.0 0.00 1.30 1.30 84 1014.6
20260904005551 26 0 0.0 0.0 0.00 1.30 1.30 83 1014.6
20260904005052 26 0 0.0 0.0 0.00 1.30 1.30 84 1014.7
20260904004604 26 0 0.0 0.0 0.00 1.30 1.30 84 1014.7
20260904004052 26 0 0.0 0.0 0.00 1.30 1.30 84 1014.9
20260904003551 25 0 0.0 0.0 0.00 1.30 1.30 84 1014.9
20260904003100 25 0 0.0 0.0 0.00 1.30 1.30 84 1015.0
20260904002552 25 0 0.0 0.0 0.00 1.30 1.30 84 1015.0
20260904002052 25 0 0.0 0.0 0.00 1.30 1.30 84 1015.0
20260904001602 25 0 0.0 0.0 0.00 1.30 1.30 84 1015.0
20260904001051 26 0 0.0 0.0 0.00 1.30 1.30 84 1015.2
20260904000551 26 0 0.0 0.0 0.00 1.30 1.30 84 1015.2
20260904000140 26 0 0.0 0.0 0.00 1.30 1.30 83 1015.4
20260903235550 26 0 0.0 0.0 0.00 1.30 1.30 83 1015.3
20260903235051 26 0 0.0 0.0 0.00 1.30 1.30 82 1015.2
20260903234605 26 0 0.0 0.0 0.00 1.30 1.30 80 1014.9
20260903234051 26 0 0.0 0.0 0.00 1.30 1.30 80 1014.9
20260903233551 26 0 0.0 0.0 0.00 1.30 1.30 79 1014.8
20260903233057 27 0 0.0 0.0 0.00 1.30 1.30 79 1014.5
20260903232551 27 0 0.0 0.0 0.00 1.30 1.30 79 1014.4
20260903232055 27 0 0.0 0.0 0.00 1.30 1.30 78 1014.5
20260903231618 27 0 0.0 0.0 0.00 1.30 1.30 77 1014.7
20260903231051 27 0 0.0 0.0 0.00 1.30 1.30 77 1014.6
20260903230551 27 0 0.0 0.0 0.00 1.30 1.30 76 1014.6
20260903230105 27 0 0.0 3.2 0.00 1.30 1.30 76 1014.4
20260903225556 28 0 0.0 4.8 0.00 1.30 1.30 75 1014.4
20260903225052 28 0 0.0 4.8 0.00 1.30 1.30 73 1014.5
20260903224602 28 0 0.0 6.4 0.00 1.30 1.30 72 1014.4
20260903224053 28 259 1.6 6.4 0.00 1.30 1.30 72 1014.4
20260903223551 28 259 1.6 9.7 0.00 1.30 1.30 72 1014.4
20260903223103 28 259 1.6 9.7 0.00 1.30 1.30 71 1014.3
20260903222555 29 259 1.6 11.3 0.00 1.30 1.30 70 1014.2
20260903222051 29 259 1.6 11.3 0.00 1.30 1.30 70 1014.2
20260903221559 29 258 1.6 11.3 0.00 1.30 1.30 69 1014.2
20260903221051 30 260 4.8 11.3 0.00 1.30 1.30 69 1014.1
20260903220550 30 250 4.8 12.9 0.00 1.30 1.30 68 1014.0
20260903220109 30 0 1.6 16.1 0.00 1.30 1.30 67 1014.0
20260903215551 30 263 3.2 16.1 0.00 1.30 1.30 67 1014.1
20260903215052 30 258 9.7 16.1 0.00 1.30 1.30 66 1014.0
20260903214606 30 248 8.0 16.1 0.00 1.30 1.30 66 1014.1
20260903214051 30 293 1.6 12.9 0.00 1.30 1.30 68 1014.0
20260903213551 30 251 4.8 12.9 0.00 1.30 1.30 67 1014.0
20260903213104 30 263 3.2 11.3 0.00 1.30 1.30 67 1014.0
20260903212551 30 226 1.6 17.7 0.00 1.30 1.30 70 1014.0
20260903212051 30 0 3.2 17.7 0.00 1.30 1.30 69 1013.9
20260903211559 29 239 4.8 14.5 0.00 1.30 1.30 69 1013.9
20260903211051 29 259 3.2 12.9 0.00 1.30 1.30 69 1013.8
20260903210552 29 253 4.8 12.9 0.00 1.30 1.30 69 1013.9
20260903210104 29 0 1.6 14.5 0.00 1.30 1.30 70 1014.1
20260903205554 29 245 3.2 14.5 0.00 1.30 1.30 68 1014.2
20260903205051 29 211 1.6 11.3 0.00 1.30 1.30 70 1014.2
20260903204608 29 273 1.6 16.1 0.00 1.30 1.30 70 1014.2
20260903204050 29 219 1.6 16.1 0.00 1.30 1.30 68 1014.2
20260903203553 29 229 3.2 16.1 0.00 1.30 1.30 68 1014.1
20260903203106 30 252 3.2 16.1 0.00 1.30 1.30 67 1014.2
20260903202552 30 239 4.8 14.5 0.00 1.30 1.30 67 1014.3
20260903202052 30 0 3.2 14.5 0.00 1.30 1.30 68 1014.2
20260903201604 30 200 4.8 14.5 0.00 1.30 1.30 65 1014.3
20260903201050 30 255 3.2 12.9 0.00 1.30 1.30 67 1014.4
20260903200551 30 217 6.4 12.9 0.00 1.30 1.30 68 1014.5
20260903200101 30 0 4.8 14.5 0.00 1.30 1.30 67 1014.5
20260903195552 30 252 1.6 16.1 0.00 1.30 1.30 66 1014.5
20260903195051 30 296 8.0 16.1 0.00 1.30 1.30 65 1014.6
20260903194606 30 271 8.0 16.1 0.00 1.30 1.30 66 1014.6
20260903194050 30 283 8.0 16.1 0.00 1.30 1.30 68 1014.7
20260903193551 29 0 4.8 16.1 0.00 1.30 1.30 66 1014.7
20260903193103 29 246 1.6 14.5 0.00 1.30 1.30 68 1014.8
20260903192552 29 255 6.4 17.7 0.00 1.30 1.30 67 1015.0
20260903192052 29 0 6.4 17.7 0.00 1.30 1.30 68 1015.0
20260903191606 29 271 4.8 16.1 0.00 1.30 1.30 68 1015.1
20260903191051 29 0 3.2 17.7 0.00 1.30 1.30 66 1015.2
20260903190551 29 275 8.0 17.7 0.00 1.30 1.30 64 1015.2
20260903190109 29 0 8.0 17.7 0.00 1.30 1.30 66 1015.2
20260903185551 29 214 3.2 12.9 0.00 1.30 1.30 68 1015.4
20260903185051 30 257 4.8 22.5 0.00 1.30 1.30 70 1015.5
20260903184559 30 0 4.8 22.5 0.00 1.30 1.30 69 1015.4
20260903184052 29 276 11.3 22.5 0.00 1.30 1.30 65 1015.6
20260903183551 30 261 6.4 17.7 0.00 1.30 1.30 65 1015.5
20260903183103 30 300 8.0 17.7 0.00 1.30 1.30 65 1015.5
20260903182554 29 284 4.8 20.9 0.00 1.30 1.30 69 1015.5
20260903182051 29 264 3.2 20.9 0.00 1.30 1.30 67 1015.7
20260903181600 29 286 11.3 19.3 0.00 1.30 1.30 66 1015.8
20260903181053 29 265 9.7 20.9 0.00 1.30 1.30 68 1015.8
20260903180551 28 295 12.9 20.9 0.00 1.30 1.30 68 1015.9
20260903175551 28 260 6.4 19.3 0.00 1.55 1.30 72 1016.1
20260903175051 28 277 4.8 19.3 0.00 1.55 1.30 71 1016.0
20260903174609 28 287 8.0 19.3 0.00 1.55 1.30 73 1016.0
20260903174052 28 269 8.0 19.3 0.00 1.55 1.30 74 1016.2
20260903173552 28 298 9.7 19.3 0.00 1.55 1.30 73 1016.1
20260903173111 27 259 9.7 19.3 0.00 1.55 1.30 73 1016.2
20260903172551 28 0 9.7 17.7 0.00 1.55 1.30 77 1016.3
20260903172050 27 283 8.0 17.7 0.00 1.55 1.30 76 1016.3
20260903171607 27 250 8.0 19.3 0.00 1.55 1.30 78 1016.4
20260903171051 27 272 11.3 24.1 0.00 1.55 1.30 80 1016.5
20260903170551 27 256 14.5 24.1 0.00 1.55 1.30 77 1016.6
20260903170112 27 275 11.3 24.1 0.00 1.55 1.30 79 1016.6
20260903165551 27 263 6.4 25.7 0.00 1.93 1.30 82 1016.6
20260903165050 26 253 12.9 25.7 0.00 1.93 1.30 81 1016.6
20260903164604 26 249 14.5 24.1 0.00 1.93 1.30 82 1016.7
20260903164054 26 242 12.9 22.5 0.00 1.93 1.30 82 1016.9
20260903163550 26 264 11.3 22.5 0.00 1.93 1.30 84 1017.1
20260903163113 26 270 9.7 22.5 0.00 1.93 1.30 85 1017.1
20260903162551 25 306 12.9 22.5 0.00 1.93 1.30 88 1017.2
20260903162051 25 265 11.3 17.7 0.00 1.93 1.30 87 1017.3
20260903161605 25 264 8.0 17.7 0.00 1.93 1.30 89 1017.4
20260903161052 25 261 6.4 11.3 0.03 1.93 1.30 90 1017.4
20260903160553 24 286 0.0 11.3 0.03 1.93 1.30 92 1017.5
20260903160108 23 0 4.8 11.3 0.03 1.93 1.30 93 1017.4
20260903155550 23 0 3.2 12.9 0.05 2.54 1.30 94 1017.4
20260903155050 22 263 4.8 12.9 0.08 2.54 1.30 94 1017.4
20260903154607 22 258 6.4 12.9 0.10 2.54 1.30 94 1017.4
20260903154051 22 267 3.2 11.3 0.10 2.54 1.30 94 1017.5
20260903153551 22 0 0.0 12.9 0.13 2.54 1.30 94 1017.3
20260903153059 22 0 0.0 19.3 0.13 2.54 1.30 94 1017.3
20260903152551 22 268 3.2 20.9 0.13 2.54 1.30 94 1017.5
20260903152051 22 251 4.8 20.9 0.13 2.54 1.30 93 1017.7
20260903151603 22 0 6.4 17.7 0.13 2.54 1.30 93 1017.9
20260903151050 22 242 3.2 17.7 0.10 2.51 1.27 93 1018.0
20260903150549 22 215 1.6 16.1 0.10 2.51 1.27 93 1017.9
20260903150119 22 235 3.2 16.1 0.10 2.51 1.27 92 1018.5
20260903145551 22 262 8.0 16.1 0.08 2.49 1.24 92 1018.6
20260903145051 22 241 9.7 19.3 0.05 2.46 1.22 92 1018.7
20260903144602 23 270 11.3 19.3 0.03 2.44 1.19 91 1018.9
20260903144051 23 300 11.3 17.7 0.03 2.44 1.19 91 1018.9
20260903143550 23 277 8.0 16.1 0.00 2.41 1.17 92 1018.9
20260903143104 23 295 9.7 14.5 0.00 2.41 1.17 92 1019.3
20260903142552 23 291 6.4 17.7 0.00 2.41 1.17 91 1019.0
20260903142054 23 305 6.4 17.7 0.00 2.41 1.17 92 1018.9
20260903141559 23 329 6.4 19.3 0.00 2.41 1.17 92 1019.1
20260903141112 23 309 9.7 19.3 0.00 2.41 1.17 92 1018.9
20260903140552 23 289 9.7 17.7 0.00 2.41 1.17 93 1018.6
20260903140058 23 292 8.0 17.7 0.00 2.41 1.17 94 1018.1